HULIANWAN GAOGUI-02 (H*)

Last updated on Fri Sep 12 2025 00:02:51 GMT+0000 (Coordinated Universal Time)

1 60327U 24135A 25253.90465247 -.00000177 00000+0 00000+0 0 9991 2 60327 0.0303 106.6314 0001489 140.2076 222.0658 1.00269413 4701
UTC large
Height (km)
Speed (km/s)
/
Latitude / Longitude
Inclination (degrees)
Orbital Period (minutes)
Azimuth
Elevation
Range (km)
Doppler Factor

Next 0 passes for location: London (51.5072 / 0.1276)

Sorry there are no passes over London.